When you browse on this site, cookies collect data to enhance your experience and personalize the content and advertising you see.
Visit our Privacy Policy to learn more. By continuing to use the site, you agree to this use of cookies and data.
  • en Suisse
  • Liste des pays
  • À 7 jours
  • Température de l'eau
  • Carte satellitaire
  • Carte météo
  • Widgets météo
  • user-avatar
    Se connecter

    Météo par heure à Yanji

    Ce jour, 27 Mai, Lundi

    Heure Température Précipitation Vent Pression Humidité
    00:00 +18°C° 0 mm 0 m/s 738 mmHg 56%
    01:00 +17°C° 0 mm 0 m/s 738 mmHg 57%
    02:00 +19°C° 0 mm 1 m/s 738 mmHg 59%
    03:00 +16°C° 0 mm 0 m/s 738 mmHg 60%
    04:00 +17°C° 0 mm 0 m/s 737 mmHg 61%
    05:00 +17°C° 0 mm 0 m/s 737 mmHg 62%
    06:00 +17°C° 0 mm 0 m/s 737 mmHg 63%
    07:00 +17°C° 1 mm 0 m/s 737 mmHg 69%
    08:00 +17°C° 1 mm 0 m/s 736 mmHg 76%
    09:00 +17°C° 1 mm 0 m/s 736 mmHg 82%
    10:00 +18°C° 3.4 mm 1 m/s 735 mmHg 86%
    11:00 +16°C° 3.4 mm 1 m/s 735 mmHg 90%
    12:00 +16°C° 3.4 mm 2 m/s 734 mmHg 93%
    13:00 +16°C° 1.9 mm 2 m/s 733 mmHg 93%
    14:00 +16°C° 1.9 mm 2 m/s 733 mmHg 94%
    15:00 +16°C° 1.9 mm 2 m/s 732 mmHg 94%
    16:00 +16°C° 2.3 mm 3 m/s 732 mmHg 94%
    17:00 +14°C° 2.3 mm 4 m/s 732 mmHg 94%
    18:00 +14°C° 2.3 mm 4 m/s 731 mmHg 94%
    19:00 +12°C° 2.2 mm 4 m/s 731 mmHg 94%
    20:00 +10°C° 2.2 mm 5 m/s 731 mmHg 94%
    21:00 +9°C° 2.2 mm 5 m/s 730 mmHg 94%
    22:00 +9°C° 0.8 mm 5 m/s 730 mmHg 93%
    23:00 +9°C° 0.8 mm 6 m/s 731 mmHg 91%

    Demain, 28 Mai, Mardi

    Heure Température Précipitation Vent Pression Humidité
    00:00 +9°C° 0.8 mm 6 m/s 731 mmHg 90%
    01:00 +9°C° 0.2 mm 7 m/s 731 mmHg 87%
    02:00 +9°C° 0.2 mm 7 m/s 731 mmHg 85%
    03:00 +9°C° 0.2 mm 8 m/s 732 mmHg 82%
    04:00 +9°C° 0 mm 7 m/s 732 mmHg 78%
    05:00 +9°C° 0 mm 7 m/s 733 mmHg 73%
    06:00 +10°C° 0 mm 7 m/s 733 mmHg 69%
    07:00 +11°C° 0 mm 8 m/s 733 mmHg 62%
    08:00 +13°C° 0 mm 8 m/s 733 mmHg 55%
    09:00 +16°C° 0 mm 9 m/s 733 mmHg 47%
    10:00 +16°C° 0 mm 10 m/s 733 mmHg 43%
    11:00 +17°C° 0 mm 10 m/s 733 mmHg 40%
    12:00 +18°C° 0 mm 10 m/s 733 mmHg 36%
    13:00 +17°C° 0 mm 10 m/s 733 mmHg 37%
    14:00 +17°C° 0 mm 9 m/s 733 mmHg 38%
    15:00 +17°C° 0 mm 8 m/s 733 mmHg 40%
    16:00 +16°C° 0 mm 8 m/s 733 mmHg 42%
    17:00 +16°C° 0 mm 7 m/s 733 mmHg 45%
    18:00 +15°C° 0 mm 6 m/s 733 mmHg 47%
    19:00 +14°C° 0 mm 5 m/s 733 mmHg 51%
    20:00 +12°C° 0 mm 4 m/s 733 mmHg 55%
    21:00 +11°C° 0 mm 4 m/s 734 mmHg 59%
    22:00 +11°C° 0 mm 4 m/s 734 mmHg 60%
    23:00 +10°C° 0 mm 5 m/s 733 mmHg 61%

    Après-demain, 29 Mai, Mercredi

    Heure Température Précipitation Vent Pression Humidité
    00:00 +10°C° 0 mm 5 m/s 733 mmHg 63%
    01:00 +10°C° 0.1 mm 6 m/s 733 mmHg 64%
    02:00 +10°C° 0.1 mm 6 m/s 732 mmHg 65%
    03:00 +10°C° 0.1 mm 7 m/s 732 mmHg 66%
    04:00 +10°C° 0 mm 7 m/s 732 mmHg 60%
    05:00 +11°C° 0 mm 7 m/s 732 mmHg 53%
    06:00 +12°C° 0 mm 8 m/s 732 mmHg 46%
    07:00 +13°C° 0 mm 8 m/s 732 mmHg 42%
    08:00 +16°C° 0 mm 9 m/s 732 mmHg 38%
    09:00 +18°C° 0 mm 10 m/s 732 mmHg 33%
    10:00 +19°C° 0 mm 10 m/s 732 mmHg 32%
    11:00 +21°C° 0 mm 10 m/s 732 mmHg 30%
    12:00 +22°C° 0 mm 10 m/s 732 mmHg 29%
    13:00 +22°C° 0 mm 10 m/s 732 mmHg 29%
    14:00 +23°C° 0 mm 9 m/s 732 mmHg 28%
    15:00 +24°C° 0 mm 9 m/s 732 mmHg 28%
    16:00 +23°C° 0 mm 8 m/s 733 mmHg 33%
    17:00 +23°C° 0 mm 6 m/s 733 mmHg 38%
    18:00 +22°C° 0 mm 5 m/s 733 mmHg 43%
    19:00 +20°C° 0 mm 4 m/s 733 mmHg 45%
    20:00 +18°C° 0 mm 3 m/s 733 mmHg 48%
    21:00 +16°C° 0 mm 2 m/s 733 mmHg 51%
    22:00 +16°C° 0 mm 2 m/s 733 mmHg 54%
    23:00 +15°C° 0 mm 2 m/s 733 mmHg 57%

    30 Mai, Jeudi

    Heure Température Précipitation Vent Pression Humidité
    00:00 +15°C° 0 mm 2 m/s 734 mmHg 59%
    01:00 +14°C° 0.1 mm 3 m/s 734 mmHg 63%
    02:00 +16°C° 0.1 mm 3 m/s 734 mmHg 66%
    03:00 +15°C° 0.1 mm 4 m/s 734 mmHg 69%
    04:00 +15°C° 0.2 mm 4 m/s 734 mmHg 73%
    05:00 +14°C° 0.2 mm 3 m/s 734 mmHg 77%
    06:00 +13°C° 0.2 mm 3 m/s 734 mmHg 81%
    07:00 +17°C° 0 mm 4 m/s 734 mmHg 72%
    08:00 +19°C° 0 mm 5 m/s 734 mmHg 62%
    09:00 +22°C° 0 mm 5 m/s 734 mmHg 52%
    10:00 +23°C° 0 mm 6 m/s 733 mmHg 49%
    11:00 +24°C° 0 mm 6 m/s 733 mmHg 46%
    12:00 +26°C° 0 mm 6 m/s 733 mmHg 42%
    13:00 +26°C° 0 mm 6 m/s 733 mmHg 41%
    14:00 +24°C° 0 mm 6 m/s 732 mmHg 40%
    15:00 +24°C° 0 mm 7 m/s 732 mmHg 39%
    16:00 +23°C° 0 mm 6 m/s 732 mmHg 41%
    17:00 +23°C° 0 mm 5 m/s 732 mmHg 42%
    18:00 +22°C° 0 mm 4 m/s 732 mmHg 44%
    19:00 +20°C° 0 mm 4 m/s 733 mmHg 46%
    20:00 +18°C° 0 mm 3 m/s 733 mmHg 49%
    21:00 +14°C° 0 mm 3 m/s 733 mmHg 52%
    22:00 +14°C° 0 mm 3 m/s 733 mmHg 55%
    23:00 +13°C° 0 mm 3 m/s 733 mmHg 58%

    31 Mai, Vendredi

    Heure Température Précipitation Vent Pression Humidité
    00:00 +12°C° 0 mm 3 m/s 733 mmHg 60%
    01:00 +12°C° 0 mm 4 m/s 733 mmHg 64%
    02:00 +12°C° 0 mm 4 m/s 733 mmHg 67%
    03:00 +12°C° 0 mm 4 m/s 733 mmHg 70%
    04:00 +12°C° 0 mm 4 m/s 734 mmHg 72%
    05:00 +12°C° 0 mm 4 m/s 734 mmHg 74%
    06:00 +12°C° 0 mm 4 m/s 734 mmHg 76%
    07:00 +14°C° 0 mm 5 m/s 734 mmHg 68%
    08:00 +16°C° 0 mm 6 m/s 734 mmHg 60%
    09:00 +18°C° 0 mm 7 m/s 734 mmHg 53%
    10:00 +20°C° 0 mm 7 m/s 734 mmHg 48%
    11:00 +21°C° 0 mm 6 m/s 734 mmHg 43%
    12:00 +22°C° 0 mm 6 m/s 734 mmHg 38%
    13:00 +22°C° 0 mm 7 m/s 734 mmHg 38%
    14:00 +22°C° 0 mm 7 m/s 734 mmHg 39%
    15:00 +22°C° 0 mm 7 m/s 734 mmHg 39%
    16:00 +22°C° 0 mm 6 m/s 734 mmHg 43%
    17:00 +21°C° 0 mm 5 m/s 734 mmHg 46%
    18:00 +20°C° 0 mm 5 m/s 734 mmHg 50%
    19:00 +18°C° 0 mm 4 m/s 735 mmHg 55%
    20:00 +16°C° 0 mm 3 m/s 735 mmHg 60%
    21:00 +14°C° 0 mm 2 m/s 735 mmHg 66%
    22:00 +14°C° 0.1 mm 2 m/s 735 mmHg 68%
    23:00 +15°C° 0.1 mm 2 m/s 735 mmHg 70%

    1 Juin, Samedi

    Heure Température Précipitation Vent Pression Humidité
    00:00 +14°C° 0.1 mm 3 m/s 736 mmHg 72%
    01:00 +14°C° 0.7 mm 2 m/s 735 mmHg 79%
    02:00 +14°C° 0.7 mm 1 m/s 735 mmHg 85%
    03:00 +13°C° 0.7 mm 1 m/s 735 mmHg 91%
    04:00 +13°C° 0.1 mm 1 m/s 735 mmHg 90%
    05:00 +13°C° 0.1 mm 1 m/s 735 mmHg 90%
    06:00 +13°C° 0.1 mm 1 m/s 735 mmHg 89%
    07:00 +16°C° 0 mm 2 m/s 735 mmHg 76%
    08:00 +18°C° 0 mm 2 m/s 735 mmHg 64%
    09:00 +21°C° 0 mm 3 m/s 735 mmHg 51%
    10:00 +24°C° 0 mm 3 m/s 735 mmHg 45%
    11:00 +26°C° 0 mm 3 m/s 735 mmHg 38%
    12:00 +28°C° 0 mm 4 m/s 734 mmHg 31%
    13:00 +29°C° 0 mm 4 m/s 734 mmHg 32%
    14:00 +29°C° 0 mm 5 m/s 734 mmHg 32%
    15:00 +29°C° 0 mm 5 m/s 734 mmHg 33%
    16:00 +28°C° 0 mm 4 m/s 734 mmHg 36%
    17:00 +28°C° 0 mm 4 m/s 734 mmHg 39%
    18:00 +27°C° 0 mm 3 m/s 734 mmHg 42%
    19:00 +25°C° 0 mm 3 m/s 735 mmHg 43%
    20:00 +22°C° 0 mm 4 m/s 735 mmHg 45%
    21:00 +20°C° 0 mm 4 m/s 735 mmHg 47%
    22:00 +18°C° 0 mm 3 m/s 735 mmHg 52%
    23:00 +17°C° 0 mm 2 m/s 735 mmHg 57%
    Voir plus